Mantas Eliosius

Chief Scout - Zalgiris
19 Nov 2028
Sunday
Process

Personality

Adaptability (6) Ambition (12) Controversy (9) Loyalty (7) Pressure (5) Professionalism (18) Sportsmanship (5) Temperament (18)

Profile

Coaching Style Democratic
License Continental B
Determination 4
Man Management 9
Motivating 5
Discipline 9
Job Satisfaction
100%
Fatigue
0%
Role Chief Scout
Wage 30.3K p/w
Contract 14.03.2030

Performance

Behaviour Good
Training Effectiveness
39%
Player Development
40%
Injury Prevention
40%
Tactical Implementation
40%

Recent Events

Recommended a transfer target now
Recommended a transfer target now
Recommended a transfer target now
Recommended a transfer target now
Assessed a player now
Birthday now
Assessed a player now
Assessed a player now

Currently Monitoring

343
Player Club Status Ability Confidence Watched Last Observed Latest Vote
Franco Vedoya Central Norte Active 110 / 105 40% 5 18.11.2028 -
Mauro Valiente Estudiantes Active 120 / 120 40% 2 18.11.2028 -
Luis Palacios Once Caldas Active 123 / 113 40% 2 18.11.2028 -
Shohboz Umarov Bunyodkor Active 113 / 122 40% 1 17.11.2028 -
Antonio Napolitano Agropecuario Argentino Active 108 / 124 40% 1 17.11.2028 -
Yuber Quiñónes Patriotas Active 117 / 109 40% 3 16.11.2028 -
Yeferson Rodallega Envigado Active 117 / 111 40% 1 16.11.2028 -
Akmal Mozgovoy Pakhtakor Active 121 / 134 40% 1 16.11.2028 -
Johan Campaña Patriotas Active 106 / 118 40% 5 15.11.2028 -
John Córdoba Millonarios Active 116 / 105 40% 6 15.11.2028 -
Jaminton Campaz Rosario Central Active 131 / 128 40% 1 15.11.2028 -
Juan Sebastián Herrera Deportivo La Guaira Active 125 / 106 40% 3 14.11.2028 -
Lautaro Godoy Atlético Tucumán Active 113 / 133 40% 1 14.11.2028 -
Yegor Kortsov Dinamo Brest Active 118 / 104 40% 7 13.11.2028 -
Diyor Xolmatov Navbahor Active 108 / 107 40% 1 13.11.2028 -
David Veliz Güemes Active 103 / 96 40% 3 12.11.2028 -
Jorginho Kairat Active 120 / 114 40% 1 12.11.2028 -
Njabulo Blom Pakhtakor Active 126 / 129 40% 1 12.11.2028 -
Bruno Leyes Godoy Cruz Active 120 / 135 40% 3 11.11.2028 -
Alisher Odilov Neftchi Active 119 / 128 40% 1 11.11.2028 -
Patricio Moyano Defensores Active 131 / 134 40% 7 10.11.2028 -
Ruslanbek Jiyanov Navbahor Active 117 / 113 40% 1 10.11.2028 -
Tomás Porra Barracas Central Active 119 / 106 40% 1 10.11.2028 -
Gonzalo Plata Nacional Active 149 / 137 40% 1 09.11.2028 -
Alex Luna Instituto Active 138 / 132 40% 1 09.11.2028 -
Radivoj Bosić Vitebsk Active 116 / 103 40% 2 08.11.2028 -
Matías Viguet Maipú Active 112 / 117 40% 3 08.11.2028 -
Vicente Poggi Godoy Cruz Active 127 / 120 40% 1 08.11.2028 -
Nahuel Curcio Colón Active 127 / 128 40% 2 07.11.2028 -
Iñaki Larthirigoyen San Telmo Active 129 / 117 40% 2 07.11.2028 -
Tomás Ferreyra Defensores Unidos Active 115 / 125 40% 1 07.11.2028 -
Franco Díaz Temperley Active 122 / 123 40% 2 06.11.2028 -
Marcelo Eggel Maipú Active 120 / 111 40% 1 06.11.2028 -
Mateo Bajamich Atlético Tucumán Active 120 / 136 40% 1 06.11.2028 -
Diego Gaitán Maipú Active 105 / 117 40% 3 27.10.2028 -
Rodrigo Ramírez Nueva Chicago Active 117 / 100 40% 1 27.10.2028 -
Brian Farioli Estudiantes Active 122 / 129 40% 3 25.10.2028 -
Federico Bisanz Atlanta Active 127 / 102 40% 2 25.10.2028 -
Ulises Sánchez Gimnasia y Esgrima Active 130 / 135 40% 2 25.10.2028 -
Daniel Barrea Godoy Cruz Active 126 / 125 40% 4 24.10.2028 -
Alejo Dramisino Atlanta Active 114 / 111 40% 2 24.10.2028 -
Tomás Pozzo Godoy Cruz Active 127 / 131 40% 1 22.10.2028 -
Maico Quiroz Güemes Active 115 / 120 40% 2 21.10.2028 -
Federico Álvarez Dinamo Tbilisi Active 107 / 107 40% 1 21.10.2028 -
Ramón González Almirante Brown Active 106 / 103 40% 3 18.10.2028 -
Federico Versaci Talleres Active 110 / 129 40% 8 16.10.2028 -
Marcos Enrique Tristán Suárez Active 104 / 97 40% 3 14.10.2028 -
Matías Rosales Sarmiento Active 122 / 118 40% 4 14.10.2028 -
Luis Olivera Defensores Unidos Active 114 / 96 40% 1 14.10.2028 -
José Barreto Quilmes Active 107 / 122 40% 2 13.10.2028 -
Luis Ángel Díaz Independiente Rivadavia Active 116 / 114 40% 1 13.10.2028 -
Yeison Suárez Deportivo Pereira Active 126 / 124 40% 2 11.10.2028 -
Juan Velázquez Belgrano Active 129 / 118 40% 1 11.10.2028 -
Matías Bergara Nueva Chicago Active 115 / 125 40% 1 11.10.2028 -
Enzo Hoyos Ferro Carril Oeste Active 123 / 126 40% 2 10.10.2028 -
Gabriel Obredor Deportivo Riestra Active 118 / 100 40% 1 10.10.2028 -
Tobías Leiva Estudiantes Active 117 / 115 40% 1 10.10.2028 -
Enzo Silcan Almagro Active 109 / 127 40% 1 08.10.2028 -
Agustín Colazo Unión de Santa Fe Active 115 / 134 40% 1 08.10.2028 -
Santiago Sala Güemes Active 115 / 102 40% 3 06.10.2028 -
Francisco González Metilli Belgrano Active 122 / 137 40% 2 06.10.2028 -
Ramiro Hernandes Belgrano Active 129 / 117 40% 1 05.10.2028 -
Nicolás Retamar Ferro Carril Oeste Active 119 / 125 40% 3 04.10.2028 -
Pedro Souto Temperley Active 115 / 130 40% 1 04.10.2028 -
Luis Sandoval Independiente Medellin Active 113 / 101 40% 1 02.10.2028 -
Agustín Benítez Defensores Active 120 / 118 40% 1 02.10.2028 -
Alexander Díaz Deportivo Riestra Active 120 / 111 40% 1 09.09.2028 -
Valentín Serrano Arsenal Active 109 / 117 40% 2 07.09.2028 -
José María Ingratti Dinamo Tbilisi Active 103 / 125 40% 1 07.09.2028 -
Facundo Nadalín San Martín SJ Active 116 / 115 40% 3 06.09.2028 -
Damián Adín San Miguel Active 116 / 110 40% 1 06.09.2028 -
Sebastián Jaurena San Martín SJ Active 110 / 103 40% 3 05.09.2028 -
Alcides Benítez Belgrano Active 113 / 111 40% 1 05.09.2028 -
Fernando Bersano Madryn Active 117 / 105 40% 1 04.09.2028 -
Lautaro Disanto Defensores Unidos Active 115 / 125 40% 4 22.08.2028 -
Luca Langoni Columbus Crew Active 141 / 145 40% 1 22.08.2028 -
Stanley Mills Crewe Alexandra Active 125 / 138 40% 3 24.07.2028 -
Sam Mather Walsall Active 113 / 129 40% 1 24.07.2028 -
Darnell Furlong Leyton Orient Lost 134 / 144 40% 1 24.07.2028 -
Armando Dobra Chesterfield Active 115 / 129 40% 1 11.07.2028 -
Mikey Johnston West Bromwich Albion Active 127 / 143 40% 1 11.07.2028 -
Daniel Kyerewaa Reading Active 121 / 110 40% 2 30.06.2028 -
Luca Gemello Perugia Active 112 / 109 40% 1 12.06.2028 -
Alfie Whiteman Newport County Lost 115 / 104 40% 1 12.06.2028 -
Joe Whitworth Wigan Athletic Active 116 / 139 40% 2 08.06.2028 -
Vykintas Slivka Kauno Zalgiris Lost 105 / 111 69% 1 07.06.2028 -
Amine Benchaib Kauno Zalgiris Active 99 / 102 69% 1 02.06.2028 Approve
Emanuele Schimmenti Potenza Active 111 / 110 40% 2 01.06.2028 -
Liam Cullen Swansea City Active 113 / 112 40% 1 01.06.2028 -
Vanja Vlahović Spezia Active 133 / 142 40% 1 31.05.2028 -
Joshua Quarshie Exeter City Active 125 / 143 40% 1 31.05.2028 -
Aaron Morley Wycombe Wanderers Active 123 / 120 40% 1 31.05.2028 -
Brandon Thomas-Asante Blackpool Active 125 / 130 40% 2 29.05.2028 -
Abdoullah Ba Swansea City Active 136 / 132 40% 1 29.05.2028 -
Egas Cacintura Akhmat Grozny Lost 122 / 122 40% 3 26.05.2028 -
Anderson Arroyo Rubin Active 122 / 132 40% 1 26.05.2028 -
Johnly Yfeko Exeter City Active 114 / 116 40% 1 25.05.2028 -
Vyacheslav Grulev Nizhniy Novgorod Active 119 / 122 40% 9 23.05.2028 -
Aaron Collins Milton Keynes Dons Active 121 / 112 40% 2 23.05.2028 -
Jack Taylor Doncaster Rovers Active 126 / 125 40% 1 23.05.2028 -
Luca Williams-Barnett Walsall Active 133 / 129 40% 1 21.05.2028 -
Daniel James Leeds United Active 122 / 133 40% 1 21.05.2028 -
Mikhail Ignatov Sochi Active 125 / 121 40% 6 20.05.2028 -
Bojan Roganović Torpedo Moscow Active 108 / 101 40% 2 20.05.2028 -
Abdoul Ouattara Port Vale Active 147 / 134 40% 3 20.05.2028 -
Tristan Crama Wycombe Wanderers Active 137 / 116 40% 1 19.05.2028 -
Artur Galoyan Torpedo Moscow Active 105 / 117 40% 1 19.05.2028 -
Charles Vernam Grimsby Town Active 122 / 97 40% 1 16.05.2028 -
George Earthy Reading Active 121 / 134 40% 2 15.05.2028 -
Reyes Cleary Bromley Active 127 / 111 40% 2 15.05.2028 -
Dylan Levitt Leyton Orient Active 122 / 129 40% 1 15.05.2028 -
Paddy Lane Reading Active 113 / 127 40% 5 12.05.2028 -
Richard Koné Queens Park Rangers Active 138 / 119 40% 2 11.05.2028 -
Tatsuhiro Sakamoto Coventry City Active 122 / 124 40% 1 11.05.2028 -
Nazmi Gripshi Rubin Active 127 / 119 40% 3 10.05.2028 -
Ben Sheaf Wrexham Active 128 / 126 40% 1 10.05.2028 -
Atsuki Ito Bolton Wanderers Active 124 / 136 40% 1 09.05.2028 -
Mohamadou Kanté Crawley Town Active 128 / 128 40% 1 09.05.2028 -
Malik Mothersille Stockport County Active 132 / 115 40% 3 06.05.2028 -
George Hall Port Vale Active 110 / 108 40% 1 06.05.2028 -
Mario Ćurić Torpedo Moscow Active 113 / 101 40% 4 05.05.2028 -
Oladapo Afolayan Blackburn Rovers Active 123 / 116 40% 2 03.05.2028 -
Callum Lang Preston Active 130 / 131 40% 1 30.04.2028 -
Iker Pozo Rodina Active 114 / 127 40% 4 28.04.2028 -
Ben Garrity Port Vale Active 105 / 126 40% 1 28.04.2028 -
Nathan Broadhead Wrexham Active 140 / 115 40% 2 27.04.2028 -
Igor Tyjon Barrow AFC Active 123 / 132 40% 4 25.04.2028 -
Calvin Ramsay Bristol Rovers Active 123 / 129 40% 2 25.04.2028 -
Ilja Vakhania Krasnodar Active 124 / 130 40% 2 22.04.2028 -
Alexey Mironov Rostov Active 121 / 124 40% 2 20.04.2028 -
Max Conway Bolton Wanderers Active 124 / 118 40% 1 19.04.2028 -
Amin Nabizada Exeter City Active 119 / 112 40% 1 19.04.2028 -
Alessandro Arena Arezzo Active 134 / 132 40% 2 17.04.2028 -
Artem Makarchuk Sochi Active 116 / 113 40% 1 13.04.2028 -
Pedro Baltika Active 137 / 146 40% 3 12.04.2028 -
Demarai Gray Birmingham Active 146 / 121 40% 2 12.04.2028 -
Miroslav Bogosavac Akhmat Grozny Active 127 / 114 40% 1 12.04.2028 -
Ryoya Morishita Blackburn Rovers Active 124 / 144 40% 1 11.04.2028 -
Liam Thompson Mansfield Town Active 117 / 112 40% 2 10.04.2028 -
Ivan Oleinikov Krylya Sovetov Active 119 / 128 40% 2 06.04.2028 -
Conor Coventry Charlton Athletic Active 126 / 126 40% 1 06.04.2028 -
Nikita Krivtsov Krasnodar Active 127 / 137 40% 1 02.04.2028 -
Maxim Petrov Baltika Active 132 / 120 40% 2 01.04.2028 -
Kenny Tete Fulham Active 144 / 128 40% 1 31.03.2028 -
Rocco Vata Watford Active 118 / 138 40% 1 31.03.2028 -
Vladimir Khubulov Dinamo Makhachkala Active 108 / 112 40% 3 30.03.2028 -
Fernando Costanza Krylya Sovetov Active 124 / 129 40% 3 30.03.2028 -
Denis Makarov Krylya Sovetov Active 115 / 116 40% 1 30.03.2028 -
Ilias Chair Queens Park Rangers Active 131 / 123 40% 1 28.03.2028 -
Lechi Sadulaev Akhmat Grozny Active 124 / 124 40% 1 27.03.2028 -
Konstantin Kuchaev Rostov Active 126 / 110 40% 2 26.03.2028 -
Ivan Komarov Rostov Active 112 / 127 40% 1 26.03.2028 -
Kike Pérez Venezia Active 147 / 147 40% 1 25.03.2028 -
Olaf Kobacki Sheffield Wednesday Active 112 / 101 40% 1 25.03.2028 -
Darko Todorović Fakel Active 123 / 117 40% 2 20.03.2028 -
Ali Ahmed Norwich City Active 118 / 132 40% 1 19.03.2028 -
Timothy Castagne Stoke City Active 141 / 125 40% 1 15.03.2028 -
Temirkan Sundukov Dinamo Makhachkala Active 117 / 114 40% 2 13.03.2028 -
Ryan McAidoo Oldham Athletic Active 136 / 127 40% 2 13.03.2028 -
Tim Iroegbunam Peterborough United Active 136 / 151 40% 1 12.03.2028 -
Camillo Tavernelli Arezzo Active 126 / 119 40% 1 11.03.2028 -
Vladislav Sarveli Nizhniy Novgorod Active 107 / 116 40% 4 10.03.2028 -
Tyreece Campbell Charlton Athletic Active 116 / 140 40% 1 10.03.2028 -
Martin Kramarič Krylya Sovetov Active 111 / 106 40% 3 09.03.2028 -
Ignacio Saavedra Sochi Active 116 / 126 40% 4 08.03.2028 -
Juan Manuel Boselli Rubin Active 127 / 117 40% 2 08.03.2028 -
Odel Offiah Shrewsbury Town Active 134 / 113 40% 1 05.03.2028 -
Henrique Carmo Sochi Active 131 / 127 40% 3 04.03.2028 -
Leo Goglichidze Rodina Active 119 / 112 40% 2 02.03.2028 -
Kevin Medina Mirandés Active 134 / 113 40% 1 29.02.2028 -
Kane Wilson Milton Keynes Dons Active 110 / 115 40% 1 29.02.2028 -
Alexandr Lomovitskiy Torpedo-BelAZ Active 112 / 99 40% 3 28.02.2028 -
Ryan Wintle Milton Keynes Dons Active 108 / 119 40% 2 27.02.2028 -
Giorgi Beridze Dinamo Tbilisi Active 104 / 94 40% 1 27.02.2028 -
Tenton Yenne Baltika Active 110 / 115 40% 5 25.02.2028 -
Luca Vido Union Brescia Active 129 / 123 40% 1 25.02.2028 -
Louis Reed Mansfield Town Active 118 / 121 40% 1 22.02.2028 -
Ruslan Bezrukov Rubin Active 115 / 117 40% 2 21.02.2028 -
Roman Yezhov Sochi Active 116 / 113 40% 1 21.02.2028 -
Kevin Pina Krasnodar Active 135 / 124 40% 1 19.02.2028 -
Veldin Hodža Rubin Active 128 / 117 40% 1 19.02.2028 -
Giorgi Arabidze Torpedo Kutaisi Active 114 / 104 40% 2 18.02.2028 -
Robert Mejía Orenburg Active 120 / 130 40% 3 14.02.2028 -
Arsen Adamov Akhmat Grozny Active 126 / 131 40% 1 09.02.2028 -
Dmitry Vasiljev Orenburg Active 128 / 124 40% 1 08.02.2028 -
Luciano Jachfe Nueva Chicago Active 131 / 132 40% 2 24.01.2028 -
Andrea Zaccagno Torres Active 112 / 117 40% 1 24.01.2028 -
Facundo Krüger Temperley Active 112 / 109 40% 1 17.01.2028 -
Simone Mazzocchi Cosenza Active 128 / 120 40% 1 01.01.2028 -
Santiago Rodríguez Gimnasia y Esgrima Active 122 / 135 40% 2 31.12.2027 -
Miloš Luković RC Strasbourg Active 126 / 127 40% 1 31.12.2027 -
Kevin Piscopo Juve Stabia Active 131 / 113 40% 1 31.12.2027 -
Evgeny Staver Rubin Active 120 / 111 40% 2 30.12.2027 -
Bogdan Ovsyannikov Orenburg Active 119 / 123 40% 1 30.12.2027 -
Shamal George Doncaster Rovers Active 112 / 112 40% 1 30.12.2027 -
Manuel Duarte Barracas Central Active 114 / 103 40% 3 28.12.2027 -
Santiago Gutiérrez Alvarado Active 101 / 100 40% 2 27.12.2027 -
Gianluca Pugliese Güemes Active 124 / 105 40% 3 26.12.2027 -
Nicolás Fernández Tristán Suárez Active 124 / 111 40% 1 24.12.2027 -
Joe Walsh Queens Park Rangers Active 123 / 115 40% 1 23.12.2027 -
Filip Marschall Stevenage Active 128 / 119 40% 1 23.12.2027 -
Rodrigo González Mitre Active 127 / 99 40% 2 21.12.2027 -
Manuel Mónaco Sarmiento Active 118 / 113 40% 1 21.12.2027 -
Nicolás Laméndola Atlético Tucumán Active 125 / 110 40% 2 20.12.2027 -
Guido Mainero Platense Active 121 / 121 40% 1 19.12.2027 -
Renzo Reynaga Patronato Active 124 / 112 40% 5 18.12.2027 -
Facundo Lencioni Gimnasia y Esgrima Active 125 / 126 40% 1 17.12.2027 -
Evgeny Latyshonok Nizhniy Novgorod Active 122 / 130 40% 1 16.12.2027 -
Mauro Casoli Talleres Active 97 / 94 40% 1 16.12.2027 -
Sergio González Racing Active 113 / 109 40% 2 15.12.2027 -
Brian Nievas Chaco For Ever Active 96 / 119 40% 1 15.12.2027 -
Fawaz Abdullahi Dinamo Minsk Active 115 / 116 40% 3 13.12.2027 -
Maximiliano Rueda Patronato Active 113 / 109 40% 1 13.12.2027 -
Sergey Varatynov Baltika Active 110 / 122 40% 1 11.12.2027 -
Camilo Alessandria Godoy Cruz Active 115 / 102 40% 1 11.12.2027 -
Rodrigo Bogarín Barracas Central Active 108 / 117 40% 1 09.12.2027 -
Martín Campos Ferro Carril Oeste Active 128 / 135 40% 3 08.12.2027 -
Renato Solís Sporting Cristal Active 135 / 120 40% 1 08.12.2027 -
Santiago Martínez Godoy Cruz Active 107 / 130 40% 3 07.12.2027 -
Delfor Minervino Estudiantes Active 117 / 108 40% 3 07.12.2027 -
Facundo Mater Barracas Central Active 117 / 106 40% 1 07.12.2027 -
Leandro Allende Colón Active 106 / 126 40% 2 06.12.2027 -
Ignacio Abraham Banfield Active 133 / 137 40% 2 04.12.2027 -
Joaquín Bigo Tristán Suárez Active 111 / 110 40% 1 04.12.2027 -
Bailey Peacock-Farrell Blackpool Active 121 / 109 40% 1 04.12.2027 -
Gonzalo Asis Almagro Active 103 / 123 40% 1 03.12.2027 -
Gabriel Díaz Patronato Active 128 / 116 40% 1 03.12.2027 -
Matías Ruiz Díaz Estudiantes Active 111 / 99 40% 1 03.12.2027 -
Imran Oulad Omar Dinamo Batumi Active 111 / 140 40% 4 02.12.2027 -
Camilo Machado Madryn Active 98 / 113 40% 1 01.12.2027 -
Juan Infante Atlético Tucumán Active 111 / 120 40% 1 01.12.2027 -
Rustam Yatimov Rostov Active 127 / 109 40% 1 01.12.2027 -
William Rovida Pro Patria Active 106 / 123 40% 1 01.12.2027 -
Žiga Frelih NK Celje Active 128 / 122 40% 1 01.12.2027 -
Leandro Lucero Temperley Active 120 / 109 40% 1 29.11.2027 -
Victor Hernandez Santa Fe Active 125 / 140 40% 2 27.11.2027 -
Alexandr Soldatenkov Sochi Active 119 / 114 40% 1 27.11.2027 -
Enzo Trinidad Colegiales Active 102 / 128 40% 5 24.11.2027 -
José Florentín Independiente Rivadavia Active 118 / 140 40% 1 24.11.2027 -
Pedro Sanz Central Norte Active 122 / 107 40% 1 23.11.2027 -
Riccardo Gagno Vicenza Active 123 / 112 40% 1 22.11.2027 -
Oscar Garrido Mitre Active 128 / 103 40% 2 20.11.2027 -
Tobías Macies Almagro Active 97 / 103 40% 1 19.11.2027 -
Francisco Salerno Defensores Unidos Active 103 / 120 40% 1 19.11.2027 -
Christian Saydee Wigan Athletic Active 110 / 104 40% 1 19.11.2027 -
Matías Vera Central Córdoba SdE Active 122 / 123 40% 2 15.11.2027 -
Jonathan Farías Torpedo Kutaisi Active 92 / 109 40% 1 13.11.2027 -
Lautaro Núñez Alvarado Active 110 / 107 40% 1 09.11.2027 -
Gino Olguín Ferro Carril Oeste Active 118 / 122 40% 2 08.11.2027 -
Santiago Camacho Estudiantes Active 92 / 105 40% 1 08.11.2027 -
Sagir Arce Saburtalo Active 97 / 82 40% 1 06.11.2027 -
Tobías Cervera Gimnasia y Esgrima Active 118 / 108 40% 1 02.11.2027 -
Nicolás Del Priore Tristán Suárez Active 111 / 119 40% 1 30.10.2027 -
Santiago Moyano Central Córdoba SdE Active 116 / 130 40% 2 15.10.2027 -
Horacio Tijanovich Central Córdoba SdE Active 129 / 104 40% 1 07.10.2027 -
Franco Bustamante Almagro Active 114 / 112 40% 1 02.10.2027 -
Tomás Castro Ponce Atlanta Active 100 / 117 40% 1 30.09.2027 -
Guljigit Alykulov Dinamo Minsk Active 102 / 100 40% 2 26.09.2027 -
Mauricio Márquez Caracas Active 118 / 84 40% 1 12.09.2027 -
Juan David Martínez Zulia Active 103 / 116 40% 1 06.09.2027 -
Matías Machado Racing Active 124 / 105 40% 1 05.09.2027 -
Abraham Bahachille Carabobo Active 100 / 121 40% 1 05.09.2027 -
Anthony Kalik Kauno Zalgiris Active 117 / 109 62% 1 12.07.2027 Approve
Nosa Iyobosa Edokpolor Kauno Zalgiris Active 96 / 96 62% 1 05.07.2027 Approve
Moussakoye Diallo Stade Malien Active 119 / 91 40% 5 14.06.2027 -
Artem Nosachev Spartak Moscow Active 66 / 68 40% 2 08.06.2027 -
Aidas Dubickas Atlantas Active 81 / 80 62% 1 04.06.2027 Approve
Bade Aluko Leicester City Active 126 / 121 40% 1 31.05.2027 -
Nikita Kononenko Metallurg Active 81 / 84 40% 1 31.05.2027 -
Bubacarr Trawally Paide Active 98 / 98 40% 2 30.05.2027 -
Juan Diego Perdomo Depor Active 77 / 74 40% 1 25.05.2027 -
Aleksey Sysoev Sevastopol Active 54 / 64 40% 1 25.05.2027 -
François Kamano Sochi Active 113 / 109 40% 6 22.05.2027 -
Olivier Leroux Mouscron Active 90 / 89 40% 1 22.05.2027 -
Charlie Gray Fleetwood Town Active 81 / 97 40% 1 22.05.2027 -
Brayan Gil Baltika Active 117 / 121 40% 3 19.05.2027 -
Mohamed Konaté Akhmat Grozny Active 122 / 123 40% 3 19.05.2027 -
Alejandro Rincon Llaneros Active 107 / 108 40% 1 18.05.2027 -
Jeriel De Santis Caracas Active 98 / 89 40% 1 18.05.2027 -
Yeangel Montero Naxxar Lions Active 92 / 106 40% 3 17.05.2027 -
Dmitry Tsypchenko Nizhniy Novgorod Active 100 / 94 40% 2 17.05.2027 -
Alexey Kashtanov Torpedo Moscow Active 114 / 95 40% 5 15.05.2027 -
Damir Céter Hamrun Spartans Active 104 / 110 40% 1 15.05.2027 -
Job Ochieng Real Sociedad Active 118 / 97 40% 3 14.05.2027 -
Ekain Orobengoa Real Sociedad Active 98 / 113 40% 1 14.05.2027 -
Joel Ezra Enyimba Active 78 / 90 40% 1 13.05.2027 -
Amine Boukamir Charleroi Active 88 / 98 40% 1 11.05.2027 -
Zoumana Simpara Djoliba Active 94 / 114 40% 1 07.05.2027 -
Alexandre Jesus Orenburg Active 113 / 113 40% 5 06.05.2027 -
Kamran Aliev SKA Khabarovsk Active 110 / 98 40% 4 06.05.2027 -
César Magallan Estudiantes de Merida Active 124 / 119 40% 1 30.04.2027 -
Christos Giousis Nea Salamis Active 113 / 109 40% 1 29.04.2027 -
Amur Kalmykov Spartak Kostroma Active 99 / 113 40% 1 24.04.2027 -
Patrick Schmidt Tarxien Rainbows Active 97 / 90 40% 3 21.04.2027 -
Juan Cejas Ethnikos Achnas Active 118 / 102 40% 1 19.04.2027 -
Chinedu Geoffrey Krylya Sovetov Active 110 / 115 40% 2 15.04.2027 -
Denis Popenkov Akron Active 66 / 65 40% 1 15.04.2027 -
Maxim Radchenko Rostov Active 84 / 90 40% 1 14.04.2027 -
Dmitry Zheltukhin Tver Active 75 / 78 40% 1 14.04.2027 -
Vadim Arutyunyan Dnepr Mogilev Active 92 / 102 40% 1 13.04.2027 -
Adalberto Peñaranda Deportivo Tachira Active 128 / 102 40% 1 12.04.2027 -
Riley Owen Stevenage Active 98 / 118 40% 1 10.04.2027 -
Enzo Cabrera AE Kition Active 106 / 116 40% 1 10.04.2027 -
Junior Paredes Trujillanos Active 103 / 121 40% 1 09.04.2027 -
Isaac Matondo Koper Active 106 / 110 40% 1 07.04.2027 -
Riad Bajić AE Kition Active 107 / 92 40% 1 06.04.2027 -
Georgy Melkadze Akhmat Grozny Active 123 / 102 40% 4 05.04.2027 -
Ronaldo Peña Deportivo Lara Active 109 / 94 40% 1 05.04.2027 -
Florin Tănase Omonoia Active 118 / 123 40% 2 02.04.2027 -
Rüstəm Əhmədzadə Sumgayit Active 122 / 111 40% 1 01.04.2027 -
Lamine Diakité Djoliba Active 95 / 79 40% 3 29.03.2027 -
Malick Traoré Onze Createurs Active 102 / 89 40% 2 27.03.2027 -
Maksim Samorodov Akhmat Grozny Active 121 / 122 40% 1 23.03.2027 -
Darío Poveda Nea Salamis Active 105 / 114 40% 2 19.03.2027 -
Rafael Arace Caracas Active 121 / 94 40% 1 17.03.2027 -
Nicolás Andereggen Ethnikos Achnas Active 105 / 99 40% 1 15.03.2027 -
Denzel Jubitana Neftchi Active 118 / 138 40% 2 13.03.2027 -
Amar Rahmanović Krylya Sovetov Active 118 / 98 40% 2 07.03.2027 -
Jajá Pafos Active 101 / 102 40% 1 03.03.2027 -
Tio Cipot NK Maribor Active 127 / 130 40% 1 27.02.2027 -
Pedro Marques Apollon Active 125 / 95 40% 1 25.02.2027 -
Chinonso Offor Baltika Active 115 / 120 40% 1 24.02.2027 -
Alexandr Yushin Torpedo Moscow Active 113 / 111 40% 2 23.02.2027 -
Ilja Safronov Rotor Active 110 / 88 40% 2 16.02.2027 -
Robert Murić Floriana Active 106 / 124 40% 1 02.02.2027 -
Ivan Fiolić Kauno Zalgiris Active 101 / 121 62% 1 07.01.2027 Approve
Ruslan Apekov Torpedo Moscow Active 100 / 114 40% 1 31.12.2026 -
Bojan Dimoski Akron Active 103 / 105 40% 1 30.12.2026 -
Yury Zheleznov Akron Active 110 / 101 40% 1 30.12.2026 -
Ramazan Gadjimuradov Chelyabinsk Active 108 / 100 40% 1 14.12.2026 -
Bruno Almeida AEL Active 104 / 136 40% 1 14.12.2026 -
Khetag Khosonov Akron Active 122 / 122 40% 3 13.12.2026 -
Fahd Moufi Baltika Active 115 / 113 40% 2 11.12.2026 -
Mohammad Javad Hosseinnejad Dinamo Makhachkala Active 107 / 103 40% 3 09.12.2026 -
Eldar Ćivić Baltika Active 123 / 110 40% 2 08.12.2026 -
Max Meyer APOEL Active 115 / 118 40% 1 04.12.2026 -
Stefan Kovač Baltika Active 118 / 125 40% 1 29.11.2026 -
Marko Janković Qarabag Active 130 / 147 40% 1 24.11.2026 -
Tom Pearce Chesterfield Active 119 / 105 40% 1 21.11.2026 -
Luke Molyneux Doncaster Rovers Active 105 / 100 40% 1 20.11.2026 -
Alexandr Makas Minsk Active 90 / 79 40% 1 31.08.2026 -
Shohruz Norxonov Active 95 / 87 40% 1 31.08.2026 -
Darius Dapkus Utenis Active 99 / 107 55% 1 24.08.2026 -